1487476800.22,22576,11.0,73374.0,-13.19,-15.01,-15.81,0,*66
1487476801.49,22577,11.0,73374.8,-13.19,-15.01,-15.81,0,*67
1487476802.75,22578,11.0,73378.0,-13.15,-14.97,-15.89,0,*62
1487476803.96,22579,11.0,73374.0,-13.15,-15.07,-15.95,0,*66
1487476805.23,22580,11.0,73376.0,-13.15,-15.21,-16.09,0,*62
1487476806.45,22581,11.0,73376.0,-13.19,-15.25,-16.37,0,*66
1487476807.69,22582,11.0,73374.8,-13.19,-15.29,-16.23,0,*6C
1487476808.95,22583,11.0,73372.3,-13.15,-15.35,-16.31,0,*6F
1487476810.17,22584,11.0,73372.5,-13.19,-15.49,-16.37,0,*69
1487476811.38,22585,11.0,73376.8,-13.19,-15.49,-16.37,0,*68
1487476812.59,22586,11.0,73378.0,-13.19,-15.49,-16.37,0,*6B
1487476813.86,22587,11.0,73378.3,-13.21,-15.57,-16.41,0,*6F
1487476815.12,22588,11.0,73376.0,-13.21,-15.29,-16.27,0,*69
1487476816.37,22589,11.0,73378.0,-13.15,-15.07,-15.89,0,*64
1487476817.6,22590,11.0,73374.5,-13.19,-14.97,-15.71,0,*6F
1487476818.85,22591,11.0,73372.8,-13.19,-14.93,-15.53,0,*6A
1487476820.09,22592,11.0,73368.8,-13.19,-14.93,-15.49,0,*62
1487476821.36,22593,11.0,73368.5,-13.19,-14.93,-15.39,0,*64
1487476822.63,22594,11.0,73368.0,-13.19,-14.79,-15.21,0,*6E
1487476823.85,22595,11.0,73370.3,-13.19,-14.89,-15.25,0,*64
1487476825.1,22596,11.0,73368.0,-13.19,-14.79,-15.25,0,*68
1487476826.32,22597,11.0,73368.0,-13.19,-14.65,-15.07,0,*64
1487476827.59,22598,11.0,73370.3,-13.19,-14.51,-15.01,0,*6A
1487476828.87,22599,11.0,73370.5,-13.15,-14.47,-14.97,0,*6E
1487476830.14,22600,11.0,73366.5,-13.19,-14.43,-14.93,0,*61
1487476831.38,22601,11.0,73370.5,-13.15,-14.33,-14.75,0,*63
1487476832.62,22602,11.0,73370.0,-13.19,-14.33,-14.75,0,*6C
1487476833.84,22603,11.0,73368.8,-13.15,-14.29,-14.69,0,*67
1487476835.06,22604,11.0,73370.0,-13.19,-14.23,-14.61,0,*6E
1487476836.32,22605,11.0,73370.0,-13.15,-14.19,-14.47,0,*6E
1487476837.57,22606,11.0,73372.3,-13.15,-14.15,-14.47,0,*61
1487476838.82,22607,11.0,73370.0,-13.15,-14.05,-14.33,0,*62
1487476840.09,22608,11.0,73374.8,-13.15,-14.05,-14.43,0,*6A
1487476841.34,22609,11.0,73378.3,-13.15,-14.05,-14.33,0,*6C
1487476842.59,22610,11.0,73374.0,-13.15,-14.01,-14.33,0,*60
1487476843.86,22611,11.0,73374.5,-13.15,-14.01,-14.43,0,*66
1487476845.11,22612,11.0,73374.5,-13.15,-14.01,-14.61,0,*65
1487476846.36,22613,11.0,73372.3,-13.15,-14.05,-14.61,0,*60
1487476847.65,22614,11.0,73372.3,-13.13,-14.05,-14.75,0,*64
1487476848.93,22615,11.0,73372.0,-13.13,-14.05,-14.69,0,*68
1487476850.18,22616,11.0,73370.5,-13.15,-14.15,-14.75,0,*61
1487476851.43,22617,11.0,73368.5,-13.15,-14.19,-14.83,0,*65
1487476852.68,22618,11.0,73374.8,-13.13,-14.29,-14.89,0,*65
1487476853.95,22619,11.0,73370.5,-13.13,-14.33,-14.97,0,*60
1487476855.2,22620,11.0,73368.5,-13.11,-14.29,-14.83,0,*66
1487476856.45,22621,11.0,73368.8,-13.11,-14.29,-14.83,0,*67
1487476857.69,22622,11.0,73374.5,-13.11,-14.29,-14.83,0,*64
1487476858.95,22623,11.0,73370.3,-13.11,-14.15,-14.79,0,*6F
1487476860.18,22624,11.0,73372.8,-13.11,-14.15,-14.69,0,*69
1487476861.42,22625,11.0,73374.3,-13.07,-14.19,-14.75,0,*6E
1487476862.67,22626,11.0,73372.8,-13.11,-14.29,-14.79,0,*65
1487476863.92,22627,11.0,73376.3,-13.11,-14.23,-14.79,0,*6E
1487476865.15,22628,11.0,73370.3,-13.11,-14.11,-14.65,0,*6D
1487476866.4,22629,11.0,73372.5,-13.07,-14.19,-14.83,0,*6B
1487476867.63,22630,11.0,73372.3,-13.07,-14.19,-14.89,0,*69
1487476868.85,22631,11.0,73370.5,-13.07,-14.23,-14.89,0,*61
1487476870.09,22632,11.0,73376.0,-13.07,-14.33,-14.97,0,*6C
1487476871.34,22633,11.0,73374.3,-13.07,-14.37,-14.97,0,*69
1487476872.59,22634,11.0,73374.8,-13.11,-14.43,-15.15,0,*61
1487476873.83,22635,11.0,73378.0,-13.11,-14.43,-15.15,0,*60
1487476875.08,22636,11.0,73374.0,-13.11,-14.65,-15.39,0,*69
1487476876.32,22637,11.0,73370.8,-13.07,-14.75,-15.63,0,*61
1487476877.56,22638,11.0,73378.8,-13.11,-14.93,-15.71,0,*62
1487476878.83,22639,11.0,73372.8,-13.11,-14.93,-15.81,0,*6C
1487476880.1,22640,11.0,73376.3,-13.11,-15.01,-15.85,0,*6C
1487476881.34,22641,11.0,73374.3,-13.11,-15.01,-15.99,0,*60
1487476882.58,22642,11.0,73368.5,-13.11,-15.15,-16.13,0,*67
1487476883.83,22643,11.0,73372.5,-13.11,-15.29,-16.27,0,*6E
1487476885.08,22644,11.0,73378.0,-13.11,-15.29,-16.27,0,*69
1487476886.32,22645,11.0,73376.0,-13.11,-15.29,-16.27,0,*68
1487476887.57,22646,11.0,73374.0,-13.11,-15.29,-16.27,0,*6B
1487476888.84,22647,11.0,73376.5,-13.11,-15.39,-16.31,0,*6C
1487476890.08,22648,11.0,73374.3,-13.11,-15.43,-16.45,0,*6D
1487476891.3,22649,11.0,73374.0,-13.11,-15.53,-16.55,0,*6C
1487476892.55,22650,11.0,73378.0,-13.11,-15.57,-16.55,0,*60
1487476893.8,22651,11.0,73374.5,-13.13,-15.75,-16.59,0,*6F
1487476895.07,22652,11.0,73374.5,-13.13,-15.71,-16.65,0,*67
1487476896.31,22653,11.0,73374.5,-13.15,-15.75,-16.65,0,*64
1487476897.54,22654,11.0,73378.8,-13.15,-15.75,-16.75,0,*62
1487476898.78,22655,11.0,73376.0,-13.15,-15.71,-16.65,0,*66
1487476900.02,22656,11.0,73376.3,-13.15,-15.75,-16.65,0,*61
1487476901.27,22657,11.0,73376.3,-13.13,-15.75,-16.75,0,*67
1487476902.52,22658,11.0,73378.5,-13.15,-15.75,-16.65,0,*6F
1487476903.78,22659,11.0,73376.5,-13.15,-15.57,-16.51,0,*69
1487476905.05,22660,11.0,73376.8,-13.15,-15.43,-16.31,0,*60
1487476906.31,22661,11.0,73376.3,-13.15,-15.21,-16.31,0,*65
1487476907.57,22662,11.0,73376.8,-13.15,-15.35,-16.31,0,*63
1487476908.83,22663,11.0,73378.0,-13.15,-15.21,-16.23,0,*64
1487476910.08,22664,11.0,73376.5,-13.15,-15.15,-16.09,0,*6C
1487476911.32,22665,11.0,73374.0,-13.15,-15.01,-15.95,0,*6E
1487476912.58,22666,11.0,73372.3,-13.15,-15.01,-15.85,0,*6C
1487476913.84,22667,11.0,73368.3,-13.15,-14.97,-15.89,0,*6F
1487476915.1,22668,11.0,73368.3,-13.15,-15.01,-15.89,0,*6E
1487476916.34,22669,11.0,73372.3,-13.15,-15.07,-15.89,0,*69
1487476917.58,22670,11.0,73370.3,-13.15,-15.07,-15.85,0,*6D
1487476918.82,22671,11.0,73374.5,-13.15,-15.21,-16.03,0,*65
1487476920.05,22672,11.0,73370.8,-13.15,-15.21,-16.03,0,*66
1487476921.27,22673,11.0,73372.0,-13.15,-15.29,-16.03,0,*6F
1487476922.52,22674,11.0,73368.5,-13.15,-15.29,-16.17,0,*6D
1487476923.79,22675,11.0,73374.8,-13.15,-15.35,-16.17,0,*61
1487476925.06,22676,11.0,73378.0,-13.15,-15.35,-16.23,0,*65
1487476926.32,22677,11.0,73368.3,-13.15,-15.35,-16.23,0,*64
1487476927.59,22678,11.0,73370.5,-13.15,-15.35,-16.23,0,*6B
1487476928.85,22679,11.0,73374.8,-13.15,-15.43,-16.31,0,*68
1487476930.12,22680,11.0,73374.8,-13.15,-15.35,-16.23,0,*6C
1487476931.36,22681,11.0,73374.0,-13.15,-15.29,-16.23,0,*60
1487476932.63,22682,11.0,73374.3,-13.19,-15.39,-16.27,0,*6A
1487476933.88,22683,11.0,73370.5,-13.15,-15.15,-16.09,0,*65
1487476935.1,22684,11.0,73372.8,-13.15,-15.15,-16.03,0,*68
1487476936.34,22685,11.0,73370.8,-13.15,-15.15,-16.09,0,*63
1487476937.59,22686,11.0,73378.5,-13.15,-15.29,-16.23,0,*67
1487476938.83,22687,11.0,73376.3,-13.19,-15.35,-16.37,0,*62
1487476940.09,22688,11.0,73376.0,-13.15,-15.35,-16.31,0,*67
1487476941.31,22689,11.0,73374.0,-13.19,-15.49,-16.37,0,*67
1487476942.54,22690,11.0,73380.0,-13.15,-15.35,-16.37,0,*68
1487476943.81,22691,11.0,73378.0,-13.15,-15.43,-16.23,0,*6D
1487476945.03,22692,11.0,73378.8,-13.19,-15.49,-16.37,0,*6D
1487476946.25,22693,11.0,73378.8,-13.19,-15.53,-16.41,0,*66
1487476947.46,22694,11.0,73376.5,-13.19,-15.49,-16.41,0,*6A
1487476948.73,22695,11.0,73372.5,-13.15,-15.35,-16.31,0,*6B
1487476949.95,22696,11.0,73372.0,-13.19,-15.53,-16.41,0,*63
1487476951.19,22697,11.0,73370.5,-13.19,-15.63,-16.51,0,*60
1487476952.43,22698,11.0,73370.8,-13.15,-15.57,-16.59,0,*6C
1487476953.65,22699,11.0,73372.3,-13.19,-15.67,-16.55,0,*6E
1487476954.89,22700,11.0,73368.8,-13.19,-15.67,-16.65,0,*6C
1487476956.13,22701,11.0,73368.8,-13.19,-15.53,-16.51,0,*6D
1487476957.38,22702,11.0,73370.5,-13.21,-15.53,-16.55,0,*61
1487476958.64,22703,11.0,73370.3,-13.21,-15.39,-16.41,0,*69
1487476959.91,22704,11.0,73368.0,-13.21,-15.43,-16.41,0,*63
1487476961.18,22705,11.0,73370.0,-13.21,-15.39,-16.41,0,*6F
1487476962.42,22706,11.0,73368.8,-13.21,-15.53,-16.41,0,*60
1487476963.65,22707,11.0,73366.0,-13.21,-15.53,-16.45,0,*65
1487476964.89,22708,11.0,73372.3,-13.19,-15.49,-16.51,0,*6F
1487476966.11,22709,11.0,73378.3,-13.23,-15.53,-16.55,0,*68
1487476967.33,22710,11.0,73374.8,-13.23,-15.67,-16.55,0,*67
1487476968.57,22711,11.0,73378.8,-13.21,-15.67,-16.55,0,*64
1487476969.84,22712,11.0,73376.0,-13.21,-15.71,-16.69,0,*6F
1487476971.1,22713,11.0,73376.3,-13.21,-15.67,-16.69,0,*69
1487476972.34,22714,11.0,73380.0,-13.23,-15.71,-16.69,0,*6B
1487476973.61,22715,11.0,73384.3,-13.21,-15.67,-16.69,0,*6F
1487476974.82,22716,11.0,73382.3,-13.23,-15.53,-16.45,0,*67
1487476976.06,22717,11.0,73376.8,-13.23,-15.39,-16.41,0,*6E
1487476977.31,22718,11.0,73378.5,-13.23,-15.25,-16.17,0,*6F
1487476978.54,22719,11.0,73380.3,-13.21,-15.11,-16.03,0,*6E
1487476979.79,22720,11.0,73372.5,-13.23,-15.15,-16.13,0,*63
1487476981.0,22721,11.0,73372.3,-13.23,-15.11,-16.03,0,*67
1487476982.24,22722,11.0,73364.0,-13.21,-15.15,-16.03,0,*62
1487476983.5,22723,11.0,73368.0,-13.21,-15.11,-16.13,0,*66
1487476984.74,22724,11.0,73370.3,-13.21,-15.11,-15.99,0,*60
1487476985.97,22725,11.0,73370.5,-13.21,-15.07,-15.99,0,*66
1487476987.22,22726,11.0,73368.8,-13.23,-15.15,-16.13,0,*65
1487476988.46,22727,11.0,73368.8,-13.23,-15.15,-16.13,0,*64
1487476989.75,22728,11.0,73368.0,-13.21,-15.39,-16.27,0,*60
1487476991.02,22729,11.0,73374.0,-13.21,-15.43,-16.41,0,*6C
1487476992.31,22730,11.0,73374.5,-13.21,-15.43,-16.31,0,*63
1487476993.55,22731,11.0,73372.3,-13.23,-15.43,-16.41,0,*67
1487476994.77,22732,11.0,73372.3,-13.23,-15.53,-16.41,0,*65
1487476996.01,22733,11.0,73374.3,-13.21,-15.53,-16.45,0,*62
1487476997.24,22734,11.0,73374.0,-13.23,-15.57,-16.45,0,*63
1487476998.48,22735,11.0,73372.3,-13.23,-15.57,-16.55,0,*63
1487476999.74,22736,11.0,73370.8,-13.21,-15.57,-16.45,0,*63
1487477000.98,22737,11.0,73372.3,-13.23,-15.57,-16.55,0,*61
1487477002.25,22738,11.0,73376.3,-13.21,-15.57,-16.59,0,*60
1487477003.47,22739,11.0,73374.8,-13.23,-15.67,-16.59,0,*60
1487477004.69,22740,11.0,73374.3,-13.23,-15.71,-16.59,0,*69
1487477005.91,22741,11.0,73372.5,-13.23,-15.67,-16.55,0,*63
1487477007.13,22742,11.0,73374.5,-13.23,-15.67,-16.55,0,*60
1487477008.35,22743,11.0,73370.5,-13.23,-15.71,-16.59,0,*6A
1487477009.57,22744,11.0,73374.0,-13.23,-15.67,-16.59,0,*6A
1487477010.81,22745,11.0,73372.8,-13.23,-15.57,-16.55,0,*64
1487477012.05,22746,11.0,73378.5,-13.23,-15.57,-16.55,0,*67
1487477013.3,22747,11.0,73376.3,-13.25,-15.63,-16.59,0,*6B
1487477014.53,22748,11.0,73374.5,-13.23,-15.57,-16.45,0,*68
1487477015.77,22749,11.0,73372.5,-13.25,-15.49,-16.37,0,*65
1487477017.01,22750,11.0,73372.0,-13.25,-15.49,-16.45,0,*68
1487477018.27,22751,11.0,73370.8,-13.25,-15.43,-16.37,0,*66
1487477019.53,22752,11.0,73368.5,-13.25,-15.57,-16.45,0,*65
1487477020.8,22753,11.0,73374.3,-13.25,-15.57,-16.59,0,*69
1487477022.06,22754,11.0,73372.3,-13.25,-15.63,-16.51,0,*61
1487477023.27,22755,11.0,73374.8,-13.23,-15.53,-16.45,0,*60
1487477024.54,22756,11.0,73370.5,-13.25,-15.71,-16.51,0,*60
1487477025.8,22757,11.0,73368.8,-13.25,-15.57,-16.45,0,*60
1487477027.01,22758,11.0,73370.5,-13.27,-15.49,-16.37,0,*67
1487477028.25,22759,11.0,73368.5,-13.25,-15.49,-16.45,0,*61
1487477029.49,22760,11.0,73372.8,-13.27,-15.57,-16.37,0,*63
1487477030.72,22761,11.0,73372.8,-13.27,-15.57,-16.45,0,*67
1487477031.97,22762,11.0,73370.8,-13.27,-15.57,-16.59,0,*69
1487477033.24,22763,11.0,73372.3,-13.27,-15.57,-16.51,0,*60
1487477034.48,22764,11.0,73374.8,-13.27,-15.63,-16.65,0,*67
1487477035.71,22765,11.0,73372.8,-13.27,-15.75,-16.59,0,*6E
1487477036.96,22766,11.0,73374.8,-13.27,-15.71,-16.65,0,*66
1487477038.24,22767,11.0,73376.0,-13.25,-15.57,-16.51,0,*66
1487477039.5,22768,11.0,73368.3,-13.27,-15.29,-16.17,0,*60
1487477040.77,22769,11.0,73370.5,-13.27,-15.35,-16.17,0,*6C
1487477042.04,22770,11.0,73370.8,-13.27,-15.35,-16.17,0,*64
1487477043.28,22771,11.0,73376.0,-13.25,-15.49,-16.37,0,*6E
1487477044.55,22772,11.0,73372.3,-13.27,-15.57,-16.51,0,*60
1487477045.79,22773,11.0,73372.5,-13.25,-15.63,-16.59,0,*6C
1487477047.03,22774,11.0,73374.5,-13.27,-15.71,-16.51,0,*62
1487477048.3,22775,11.0,73372.0,-13.27,-15.57,-16.51,0,*67
1487477049.52,22776,11.0,73368.8,-13.27,-15.49,-16.37,0,*6B
1487477050.76,22777,11.0,73366.0,-13.27,-15.49,-16.31,0,*6C
1487477052.03,22778,11.0,73368.0,-13.27,-15.43,-16.31,0,*69
1487477053.27,22779,11.0,73368.0,-13.27,-15.49,-16.31,0,*62
1487477054.51,22780,11.0,73368.3,-13.27,-15.49,-16.31,0,*64
1487477055.76,22781,11.0,73378.5,-13.27,-15.43,-16.37,0,*69
1487477057.0,22782,11.0,73374.8,-13.27,-15.57,-16.45,0,*6A
1487477058.21,22783,11.0,73372.3,-13.27,-15.49,-16.37,0,*61
1487477059.45,22784,11.0,73368.3,-13.27,-15.43,-16.45,0,*69
1487477060.69,22785,11.0,73368.3,-13.27,-15.43,-16.45,0,*68
1487477061.91,22786,11.0,73372.3,-13.27,-15.49,-16.45,0,*61
1487477063.12,22787,11.0,73374.0,-13.27,-15.49,-16.37,0,*65
1487477064.38,22788,11.0,73370.0,-13.29,-15.57,-16.45,0,*6E
1487477065.64,22789,11.0,73372.5,-13.29,-15.57,-16.45,0,*6F
1487477066.88,22790,11.0,73370.3,-13.29,-15.49,-16.37,0,*6D
1487477068.11,22791,11.0,73372.8,-13.29,-15.49,-16.37,0,*6C
1487477069.37,22792,11.0,73372.5,-13.29,-15.57,-16.45,0,*65
1487477070.63,22793,11.0,73372.5,-13.29,-15.57,-16.45,0,*64
1487477071.89,22794,11.0,73374.5,-13.29,-15.57,-16.45,0,*63
1487477073.15,22795,11.0,73368.5,-13.29,-15.57,-16.37,0,*67
1487477074.44,22796,11.0,73364.5,-13.29,-15.43,-16.23,0,*64
1487477075.74,22797,11.0,73368.3,-13.33,-15.39,-16.13,0,*60
1487477077.01,22798,11.0,73368.8,-13.33,-15.25,-16.09,0,*69
1487477078.3,22799,11.0,73374.5,-13.29,-15.21,-16.09,0,*67
1487477079.54,22800,11.0,73372.3,-13.29,-15.29,-16.03,0,*6A
1487477080.83,22801,11.0,73368.8,-13.33,-15.39,-16.13,0,*60
1487477082.13,22802,11.0,73368.3,-13.29,-15.35,-16.17,0,*60
1487477083.42,22803,11.0,73370.8,-13.33,-15.39,-16.23,0,*61
1487477084.69,22804,11.0,73372.3,-13.33,-15.39,-16.37,0,*63
1487477085.93,22805,11.0,73370.3,-13.33,-15.53,-16.41,0,*6F
1487477087.17,22806,11.0,73370.0,-13.29,-15.49,-16.45,0,*68
1487477088.43,22807,11.0,73370.3,-13.29,-15.57,-16.59,0,*6B
1487477089.68,22808,11.0,73374.0,-13.29,-15.71,-16.59,0,*60
1487477090.93,22809,11.0,73368.8,-13.29,-15.75,-16.59,0,*65
1487477092.2,22810,11.0,73372.0,-13.33,-15.75,-16.65,0,*69
1487477093.47,22811,11.0,73372.0,-13.33,-15.67,-16.65,0,*6B
1487477094.71,22812,11.0,73370.8,-13.33,-15.67,-16.55,0,*6B
1487477096.0,22813,11.0,73370.3,-13.33,-15.39,-16.27,0,*64
1487477097.27,22814,11.0,73370.5,-13.33,-15.25,-16.13,0,*69
1487477098.55,22815,11.0,73370.5,-13.33,-15.25,-16.13,0,*68
1487477099.83,22816,11.0,73366.5,-13.29,-15.21,-16.09,0,*6F
1487477101.13,22817,11.0,73366.8,-13.33,-15.35,-16.13,0,*6B
1487477102.42,22818,11.0,73370.0,-13.33,-15.39,-16.27,0,*6F
1487477103.69,22819,11.0,73368.3,-13.33,-15.39,-16.37,0,*6F
1487477104.93,22820,11.0,73370.3,-13.33,-15.49,-16.41,0,*63
1487477106.2,22821,11.0,73370.5,-13.33,-15.53,-16.51,0,*68
1487477107.44,22822,11.0,73368.3,-13.33,-15.67,-16.55,0,*68
1487477108.7,22823,11.0,73374.3,-13.33,-15.67,-16.51,0,*6D
1487477109.95,22824,11.0,73372.8,-13.33,-15.63,-16.41,0,*6F
1487477111.19,22825,11.0,73370.0,-13.33,-15.67,-16.55,0,*6F
1487477112.43,22826,11.0,73364.0,-13.35,-15.67,-16.51,0,*6E
1487477113.65,22827,11.0,73368.0,-13.35,-15.63,-16.41,0,*6A
1487477114.86,22828,11.0,73368.8,-13.35,-15.63,-16.41,0,*65
1487477116.1,22829,11.0,73364.8,-13.35,-15.63,-16.51,0,*65
1487477117.34,22830,11.0,73366.8,-13.35,-15.53,-16.27,0,*6F
1487477118.59,22831,11.0,73370.5,-13.37,-15.53,-16.41,0,*6C
1487477119.85,22832,11.0,73370.5,-13.37,-15.57,-16.41,0,*6B
1487477121.07,22833,11.0,73364.5,-13.35,-15.49,-16.41,0,*67
1487477122.29,22834,11.0,73364.5,-13.35,-15.53,-16.41,0,*6B
1487477123.5,22835,11.0,73370.5,-13.35,-15.53,-16.41,0,*6A
1487477124.74,22836,11.0,73370.0,-13.35,-15.67,-16.51,0,*6F
1487477125.99,22837,11.0,73368.0,-13.37,-15.71,-16.59,0,*63
1487477127.21,22838,11.0,73366.5,-13.35,-15.71,-16.59,0,*6E
1487477128.42,22839,11.0,73364.8,-13.35,-15.67,-16.55,0,*64
1487477129.64,22840,11.0,73366.5,-13.35,-15.71,-16.75,0,*6F
1487477130.89,22841,11.0,73366.8,-13.35,-15.67,-16.69,0,*64
1487477132.16,22842,11.0,73366.5,-13.37,-15.85,-16.75,0,*64
1487477133.42,22843,11.0,73366.8,-13.37,-15.81,-16.75,0,*61
1487477134.7,22844,10.94,73360.8,-13.37,-15.85,-16.75,0,*62
1487477135.97,22845,11.0,73368.3,-13.37,-15.85,-16.75,0,*63
1487477137.24,22846,11.0,73366.0,-13.37,-15.81,-16.75,0,*64
1487477138.5,22847,11.0,73364.3,-13.37,-15.81,-16.75,0,*65
1487477139.78,22848,11.0,73370.0,-13.37,-15.85,-16.59,0,*60
1487477141.04,22849,11.0,73370.3,-13.37,-15.81,-16.59,0,*65
1487477142.33,22850,11.0,73368.5,-13.37,-15.81,-16.69,0,*6E
1487477143.61,22851,11.0,73368.3,-13.41,-15.89,-16.75,0,*6B
1487477144.89,22852,11.0,73374.0,-13.37,-15.81,-16.69,0,*6C
1487477146.16,22853,11.0,73368.5,-13.37,-15.81,-16.75,0,*60
1487477147.43,22854,11.0,73370.3,-13.37,-15.85,-16.83,0,*6A
1487477148.7,22855,11.0,73370.0,-13.41,-15.89,-16.89,0,*6C
1487477149.97,22856,11.0,73368.8,-13.41,-15.89,-16.89,0,*6F
1487477151.23,22857,11.0,73368.8,-13.37,-15.85,-16.83,0,*69
1487477152.5,22858,11.0,73370.0,-13.41,-15.89,-16.89,0,*61
1487477153.77,22859,11.0,73370.5,-13.41,-15.85,-16.79,0,*63
1487477155.04,22860,11.0,73368.3,-13.41,-15.85,-16.89,0,*66
1487477156.3,22861,11.0,73368.8,-13.37,-15.81,-16.83,0,*68
1487477157.54,22862,11.0,73366.5,-13.41,-15.99,-16.89,0,*69
1487477158.79,22863,11.0,73366.5,-13.41,-15.75,-16.79,0,*65
1487477160.05,22864,11.0,73370.8,-13.41,-15.71,-16.65,0,*6B
1487477161.32,22865,11.0,73370.0,-13.41,-15.71,-16.65,0,*6A
1487477162.57,22866,11.0,73368.5,-13.41,-15.75,-16.75,0,*6C
1487477163.83,22867,11.0,73368.3,-13.41,-15.75,-16.75,0,*6D
1487477165.1,22868,11.0,73368.8,-13.41,-15.85,-16.75,0,*6D
1487477166.37,22869,11.0,73368.3,-13.41,-15.85,-16.79,0,*60
1487477167.61,22870,11.0,73368.3,-13.43,-15.89,-16.79,0,*66
1487477168.88,22871,11.0,73374.0,-13.41,-15.85,-16.79,0,*69
1487477170.15,22872,11.0,73366.5,-13.41,-15.89,-16.89,0,*69
1487477171.42,22873,11.0,73364.8,-13.41,-15.89,-16.79,0,*67
1487477172.7,22874,11.0,73368.8,-13.41,-15.85,-16.75,0,*60
1487477173.96,22875,11.0,73370.5,-13.43,-15.81,-16.69,0,*6A
1487477175.23,22876,11.0,73368.0,-13.41,-15.75,-16.65,0,*6C
1487477176.48,22877,11.0,73374.0,-13.41,-15.75,-16.75,0,*6C
1487477177.73,22878,11.0,73374.3,-13.43,-15.81,-16.83,0,*63
1487477178.97,22879,11.0,73372.0,-13.43,-15.89,-16.79,0,*6F
1487477180.24,22880,11.0,73370.0,-13.41,-15.89,-16.79,0,*6B
1487477181.45,22881,11.0,73368.3,-13.43,-16.03,-16.83,0,*6C
1487477182.69,22882,11.0,73368.8,-13.45,-15.95,-16.93,0,*64
1487477183.93,22883,11.0,73368.5,-13.43,-16.09,-16.93,0,*65
1487477185.2,22884,11.0,73368.8,-13.45,-16.09,-16.93,0,*64
1487477186.43,22885,11.0,73366.8,-13.45,-16.03,-16.93,0,*6F
1487477187.67,22886,11.0,73364.0,-13.45,-16.03,-16.93,0,*6C
1487477188.91,22887,11.0,73368.8,-13.43,-15.89,-16.83,0,*6B
1487477190.18,22888,10.94,73368.5,-13.45,-15.89,-16.79,0,*67
1487477191.44,22889,11.0,73368.5,-13.45,-15.81,-16.83,0,*6B
1487477192.68,22890,11.0,73370.0,-13.45,-15.95,-16.93,0,*67
1487477193.92,22891,11.0,73368.8,-13.45,-15.95,-16.93,0,*66
1487477195.13,22892,11.0,73366.5,-13.47,-16.03,-16.93,0,*6B
1487477196.34,22893,11.0,73366.5,-13.47,-16.03,-16.93,0,*6A
1487477197.58,22894,11.0,73370.0,-13.47,-16.09,-16.93,0,*67
1487477198.83,22895,11.0,73368.5,-13.47,-16.09,-16.93,0,*66
1487477200.04,22896,11.0,73366.8,-13.47,-15.95,-16.83,0,*62
1487477201.31,22897,11.0,73370.3,-13.47,-15.89,-16.69,0,*6A
1487477202.56,22898,11.0,73370.0,-13.47,-15.81,-16.75,0,*60
1487477203.79,22899,11.0,73370.8,-13.49,-15.67,-16.45,0,*64
1487477205.06,22900,11.0,73368.8,-13.47,-15.39,-16.27,0,*64
1487477206.35,22901,11.0,73370.0,-13.49,-15.43,-16.31,0,*61
1487477207.6,22902,11.0,73366.8,-13.49,-15.57,-16.45,0,*64
1487477208.84,22903,11.0,73368.0,-13.47,-15.63,-16.51,0,*69
1487477210.09,22904,11.0,73370.0,-13.49,-15.71,-16.59,0,*6B
1487477211.33,22905,11.0,73368.0,-13.49,-15.67,-16.59,0,*6D
1487477212.55,22906,11.0,73370.5,-13.47,-15.75,-16.55,0,*6F
1487477213.79,22907,11.0,73368.5,-13.47,-15.81,-16.79,0,*6B
1487477215.03,22908,11.0,73366.5,-13.49,-15.99,-16.83,0,*66
1487477216.24,22909,11.0,73368.8,-13.47,-15.95,-16.93,0,*64
1487477217.48,22910,11.0,73368.3,-13.49,-15.95,-16.89,0,*69
1487477218.72,22911,11.0,73368.0,-13.49,-15.95,-16.83,0,*62
1487477219.96,22912,11.0,73372.8,-13.49,-15.95,-16.83,0,*61
1487477221.21,22913,11.0,73374.8,-13.49,-15.95,-16.75,0,*69
1487477222.48,22914,11.0,73368.0,-13.49,-15.81,-16.75,0,*6B
1487477223.75,22915,11.0,73370.5,-13.49,-15.81,-16.75,0,*6A
1487477225.02,22916,11.0,73368.0,-13.49,-15.81,-16.75,0,*69
1487477226.29,22917,11.0,73368.8,-13.53,-15.81,-16.75,0,*63
1487477227.56,22918,11.0,73368.0,-13.53,-15.85,-16.75,0,*68
1487477228.83,22919,11.0,73368.5,-13.53,-15.85,-16.75,0,*69
1487477230.1,22920,11.0,73368.3,-13.53,-15.81,-16.75,0,*67
1487477231.37,22921,11.0,73370.5,-13.49,-15.85,-16.75,0,*69
1487477232.64,22922,11.0,73370.8,-13.49,-15.81,-16.75,0,*6E
1487477233.91,22923,11.0,73366.0,-13.49,-15.85,-16.83,0,*62
1487477235.18,22924,10.94,73366.0,-13.49,-15.85,-16.83,0,*65
1487477236.45,22925,11.0,73364.3,-13.53,-15.85,-16.83,0,*6F
1487477237.72,22926,10.94,73364.8,-13.53,-15.85,-16.75,0,*65
1487477239.01,22927,11.0,73368.8,-13.53,-15.81,-16.69,0,*6D
1487477240.29,22928,11.0,73366.8,-13.53,-15.81,-16.69,0,*62
1487477241.57,22929,11.0,73364.8,-13.53,-15.85,-16.75,0,*6A
1487477242.83,22930,11.0,73366.5,-13.53,-15.85,-16.89,0,*61
1487477244.1,22931,11.0,73368.3,-13.53,-15.85,-16.83,0,*6A
1487477245.3,22932,11.0,73370.0,-13.55,-15.99,-16.93,0,*63
1487477246.57,22933,11.0,73372.5,-13.53,-15.81,-16.75,0,*65
1487477247.84,22934,11.0,73372.5,-13.53,-15.85,-16.83,0,*6F
1487477249.1,22935,11.0,73376.0,-13.55,-15.85,-16.69,0,*6C
1487477250.34,22936,11.0,73374.3,-13.55,-15.89,-16.79,0,*62
1487477251.59,22937,11.0,73374.0,-13.55,-15.89,-16.79,0,*63
1487477252.85,22938,11.0,73370.0,-13.53,-15.85,-16.83,0,*63
1487477254.12,22939,11.0,73364.3,-13.55,-15.85,-16.65,0,*6C
1487477255.36,22940,11.0,73364.0,-13.55,-15.85,-16.79,0,*6F
1487477256.63,22941,11.0,73364.8,-13.53,-15.81,-16.75,0,*60
1487477257.87,22942,11.0,73370.3,-13.55,-15.85,-16.79,0,*6D
1487477259.14,22943,11.0,73370.0,-13.57,-15.89,-16.89,0,*6D
1487477260.38,22944,11.0,73370.5,-13.55,-15.89,-16.79,0,*67
1487477261.59,22945,11.0,73366.3,-13.55,-15.99,-16.89,0,*68
1487477262.83,22946,11.0,73366.3,-13.55,-16.03,-17.03,0,*68
1487477264.06,22947,11.0,73370.5,-13.55,-15.89,-16.93,0,*60
1487477265.3,22948,10.94,73366.8,-13.55,-15.85,-16.79,0,*67
1487477266.57,22949,11.0,73370.0,-13.55,-15.85,-16.65,0,*6B
1487477267.81,22950,11.0,73366.3,-13.55,-15.75,-16.65,0,*6C
1487477269.05,22951,11.0,73370.3,-13.55,-15.89,-16.75,0,*6F
1487477270.29,22952,11.0,73370.0,-13.55,-15.85,-16.79,0,*6C
1487477271.54,22953,11.0,73370.5,-13.55,-15.85,-16.79,0,*6D
1487477272.81,22954,11.0,73368.8,-13.53,-15.85,-16.75,0,*60
1487477274.08,22955,11.0,73368.8,-13.57,-15.85,-16.79,0,*69
1487477275.36,22956,11.0,73370.0,-13.57,-15.85,-16.75,0,*66
1487477276.6,22957,10.94,73366.3,-13.55,-15.89,-16.79,0,*65
1487477277.84,22958,11.0,73370.8,-13.55,-15.89,-16.79,0,*6A
1487477279.08,22959,11.0,73368.3,-13.55,-15.89,-16.89,0,*64
1487477280.32,22960,11.0,73370.5,-13.55,-15.89,-16.79,0,*61
1487477281.56,22961,11.0,73366.5,-13.57,-16.03,-16.89,0,*6C
1487477282.83,22962,11.0,73368.3,-13.57,-15.99,-17.03,0,*6C
1487477284.07,22963,11.0,73368.3,-13.57,-16.03,-16.93,0,*65
1487477285.32,22964,11.0,73368.3,-13.57,-16.03,-16.89,0,*69
1487477286.54,22965,11.0,73368.3,-13.59,-15.95,-16.83,0,*60
1487477287.81,22966,11.0,73374.0,-13.57,-15.85,-16.79,0,*69
1487477289.09,22967,11.0,73374.3,-13.57,-15.89,-16.79,0,*64
1487477290.33,22968,11.0,73370.8,-13.57,-16.03,-16.89,0,*65
1487477291.61,22969,11.0,73372.3,-13.59,-16.09,-17.07,0,*67
1487477292.89,22970,11.0,73374.0,-13.59,-16.17,-17.07,0,*60
1487477294.17,22971,11.0,73368.3,-13.59,-16.17,-17.07,0,*61
1487477295.44,22972,11.0,73368.8,-13.57,-16.03,-17.03,0,*6D
1487477296.71,22973,11.0,73374.8,-13.57,-16.03,-17.03,0,*6C
1487477297.93,22974,11.0,73372.3,-13.59,-15.95,-16.93,0,*61
1487477299.2,22975,11.0,73372.8,-13.57,-15.85,-16.79,0,*6B